Flag for Brazil Weather past 2 weeks in Pirassununga, São Paulo, Brazil

Now
79 °F

Broken clouds.


Feels Like: 81 °F
Forecast: 65 / 89 °F
Wind: 9 mph from Southwest

Location: Pirassununga Airport

Current Time: Oct 1, 2014 at 1:35:25 PM

Latest Report: Oct 1, 2014 at 1:00 PM


Visibility: N/A

Pressure: 30.04 "Hg

Humidity: 61%

Dew point: 64 °F

Location of PirassunungaLocation

Historic Weather in Pirassununga — Graph

°F

Pirassununga temperature yesterday

Maximum temperature yesterday: 88 °F (at 2:00 PM)
Minimum temperature yesterday: 66 °F (at 6:00 AM)
Average temperature yesterday: 77 °F

Past Weeks' High & Low Weather Summary

 TemperatureHumidityPressure
High93 °F (Sep 29, 3:00 PM)100% (Sep 19, 8:00 PM)30.18 "Hg (Sep 19, 8:00 PM)
Low48 °F (Sep 23, 6:00 AM)24% (Sep 17, 4:00 PM)29.86 "Hg (Sep 19, 2:00 PM)
Average74 °F65%30.03 "Hg
* Reported Sep 16 12:00 Noon — Oct 1 12:00 Noon, Pirassununga, Weather by CustomWeather, © 2014

Note: Actual official high and low records may vary slightly from our data, if they occured in-between our weather recording intervals... More about our weather records

Advertising

Pirassununga weather history for previous 24 hours

 ConditionsComfort  
Time TempWeatherWind HumidityBarometerVisibility
12:00 PM
Oct 1
81 °FPassing clouds.12 mph54%30.09 "HgN/A
11:00 AM79 °FScattered clouds.15 mph54%30.12 "HgN/A
10:00 AM79 °FPassing clouds.16 mph58%30.12 "HgN/A
9:00 AM75 °FScattered clouds.20 mph69%30.12 "HgN/A
8:00 AM73 °FBroken clouds.18 mph74%30.12 "HgN/A
7:00 AM70 °FPartly sunny.1 mph88%30.04 "HgN/A
6:00 AM68 °FPartly sunny.3 mph94%30.04 "HgN/A
11:00 PM
Sep 30
70 °FClear.5 mph83%30.01 "Hg10 mi
10:00 PM70 °FClear.3 mph83%30.04 "Hg10 mi
9:00 PM72 °FClear.No wind78%30.01 "Hg10 mi
8:00 PM73 °FClear.2 mph78%29.98 "Hg10 mi
7:00 PM77 °FClear.No wind65%29.98 "Hg10 mi
6:00 PM81 °FPassing clouds.6 mph58%29.98 "HgN/A
5:00 PM84 °FPartly sunny.3 mph45%29.98 "HgN/A
4:00 PM84 °FPartly sunny.6 mph48%29.98 "HgN/A
3:00 PM84 °FPartly sunny.13 mph45%29.98 "HgN/A
2:00 PM88 °FScattered clouds.10 mph40%29.98 "HgN/A
1:00 PM84 °FScattered clouds.6 mph48%30.01 "HgN/A
Weather by CustomWeather, © 2014

See weather overviewHow to use our weather pages